Tracking 29594 objects as of 20-Sep-2024
HD Live streaming from Space Station
objects crossing your sky now

FENGYUN 1C DEB

Track FENGYUN 1C DEB now!
10-day predictions


NORAD ID: 37911
Int'l Code: 1999-025ENL
Perigee: 819.2 km
Apogee: 1,031.6 km
Inclination: 99.3 °
Period: 103.4 minutes
Semi major axis: 7296 km
RCS: 0.0022 m2 (small)
Launch date: May 10, 1999
Source: People's Republic of China (PRC)
Launch site: Taiyaun Space Center, China (TSC)

Note: This is SATELLITE DEBRIS
Your satellite tracking list
Your tracking list is empty




NASA's NSSDC Master Catalog

Two Line Element Set (TLE):
1 37911U 99025ENL 24248.40741561  .00007598  00000-0  53905-2 0  9997
2 37911  99.3186 317.2730 0145550 289.2860  69.2606 13.92971960702338
Source of the keplerian elements: AFSPC